Flag for Colombia Weather past 2 weeks in Manizales, Colombia

Now
75 °F

Scattered showers. Scattered clouds.


Feels Like: 77 °F
Forecast: N/A
Wind: 2 mph from North

Location: Pereira / Matecana

Current Time: Sep 21, 2014 at 3:54:48 PM

Latest Report: Sep 21, 2014 at 3:00 PM


Visibility: N/A

Pressure: 30.06 "Hg

Humidity: 69%

Dew point: 64 °F

Location of ManizalesLocation

Historic Weather in Manizales — Graph

°F

Manizales temperature yesterday

Maximum temperature yesterday: 73 °F (at 2:00 PM)
Minimum temperature yesterday: 63 °F (at 7:00 AM)
Average temperature yesterday: 68 °F

Past Weeks' High & Low Weather Summary

 TemperatureHumidityPressure
High86 °F (Sep 9, 2:00 PM)100% (Sep 20, 6:00 AM)30.24 "Hg (Sep 20, 6:00 AM)
Low63 °F (Sep 12, 7:00 AM)35% (Sep 7, 4:00 PM)29.94 "Hg (Sep 9, 4:00 PM)
Average72 °F75%30.09 "Hg
* Reported Sep 6 2:00 PM — Sep 21 2:00 PM, Manizales, Weather by CustomWeather, © 2014

Note: Actual official high and low records may vary slightly from our data, if they occured in-between our weather recording intervals... More about our weather records

Advertising

Manizales weather history for previous 24 hours

 ConditionsComfort  
Time TempWeatherWind HumidityBarometerVisibility
2:00 PM
Sep 21
81 °FScattered showers. Scattered clouds.6 mph58%30.09 "HgN/A
1:00 PM77 °FPassing clouds.6 mph65%30.12 "HgN/A
12:00 PM75 °FPassing clouds.7 mph69%30.15 "HgN/A
11:00 AM72 °FPartly sunny.3 mph73%30.18 "HgN/A
10:00 AM68 °FFog.2 mph83%30.21 "Hg5 mi
9:00 AM66 °FFog.2 mph94%30.21 "Hg4 mi
8:00 AM64 °FDrizzle. Broken clouds.3 mph94%30.21 "Hg3 mi
7:00 AM64 °FDrizzle. Fog.6 mph88%30.18 "Hg4 mi
6:00 AM64 °FFog.5 mph94%30.16 "Hg4 mi
5:00 AM66 °FPassing clouds.6 mph83%30.13 "HgN/A
12:00 AM64 °FPassing clouds.7 mph78%30.15 "HgN/A
11:00 PM
Sep 20
64 °FPassing clouds.6 mph78%30.16 "HgN/A
10:00 PM66 °FPassing clouds.7 mph78%30.15 "HgN/A
9:00 PM66 °FPassing clouds.7 mph78%30.14 "HgN/A
8:00 PM68 °FPassing clouds.6 mph73%30.12 "HgN/A
7:00 PM68 °FPassing clouds.10 mph73%30.09 "HgN/A
6:00 PM70 °FPassing clouds.5 mph73%30.06 "HgN/A
5:00 PM72 °FScattered showers. Scattered clouds.6 mph65%30.04 "HgN/A
4:00 PM72 °FScattered showers. Partly sunny.5 mph65%30.03 "HgN/A
3:00 PM73 °FScattered showers. Partly sunny.5 mph74%30.07 "HgN/A
Weather by CustomWeather, © 2014

See weather overviewHow to use our weather pages